Temperature
8 9 9 9 9 9 10 10 10 10 10 10 10 10 10 10 10 10 10 11 11 11 11 11 11 11 11 11 11 12 12 12 12 12 12 12 12 12 12 12 12 12 12
8 8 8 8 9 9 9 9 9 9 9 9 9 10 10 10 10 10 10 10 10 10 11 11 11 11 11 11 11 11 11 11 11 12 12 12 12 12 12 12 11 12 12
7 7 7 8 8 8 8 8 8 9 9 9 9 9 9 9 9 10 10 10 10 10 10 10 10 10 10 10 10 11 11 11 11 11 11 11 11 11 11 11 11 11 11
6 7 7 7 7 7 8 8 8 8 8 8 8 9 9 9 9 9 9 9 10 10 10 10 10 10 10 10 10 10 10 10 10 10 11 11 11 11 11 11 11 11 11
5 6 6 6 6 6 7 7 7 7 8 8 8 8 8 8 8 8 9 9 9 9 9 9 9 9 9 9 9 10 10 10 10 10 10 10 10 10 11 10 10 10 11
5 5 5 5 5 6 6 6 6 6 7 7 7 7 8 8 8 8 8 8 8 8 8 9 9 9 9 9 9 9 9 9 9 10 10 10 10 10 10 10 10 10 10
4 4 4 5 5 5 5 5 5 6 6 6 6 7 7 7 7 7 7 7 8 8 8 8 8 8 8 9 9 9 9 9 9 9 9 9 9 10 10 10 10 10 10
3 3 3 4 4 4 4 4 5 5 5 5 4 4 5 6 6 7 7 7 7 7 7 7 7 8 8 8 8 8 8 8 8 8 9 9 9 9 9 9 9 9 10
2 2 3 3 3 3 3 4 4 4 4 4 3 3 3 3 4 5 6 6 6 6 6 6 7 7 7 7 7 7 7 8 8 8 8 8 8 8 9 9 9 9 9
2 2 2 2 2 2 3 3 3 3 3 3 3 3 2 2 2 3 4 5 5 5 6 6 6 6 6 6 6 6 6 7 7 7 7 8 8 8 8 8 8 8 9
1 1 1 1 1 2 2 2 2 2 2 2 2 2 2 2 2 2 2 4 4 5 5 5 5 5 5 5 5 5 6 6 6 7 7 7 7 7 7 8 8 8 8
0 0 0 0 0 1 1 1 1 1 1 1 1 1 1 1 1 1 1 2 3 4 4 4 4 4 5 5 5 5 5 5 5 6 6 6 6 7 7 7 7 7 8
-1 -1 -1 -0 -0 -0 -0 -0 -0 0 0 0 0 0 0 0 1 1 1 1 1 2 3 3 3 3 4 4 4 4 4 4 5 5 5 5 6 6 7 7 7 7 7
-2 -2 -1 -1 -1 -1 -1 -1 -1 -1 -1 -1 -0 -0 -0 -0 -0 0 0 0 0 0 1 2 2 3 3 3 3 3 4 4 4 4 4 5 5 5 6 6 6 7 7
-3 -3 -2 -2 -2 -2 -2 -2 -2 -2 -1 -1 -1 -1 -1 -1 -1 -1 -0 -0 -1 -1 -0 1 1 2 2 2 2 2 3 3 3 4 4 4 4 5 5 5 6 6 6
-3 -3 -3 -3 -3 -2 -2 -2 -2 -2 -2 -2 -2 -2 -1 -1 -1 -1 -1 -1 -1 -1 -1 -0 0 1 1 1 1 1 2 2 3 3 3 3 4 4 4 4 5 5 5
-4 -4 -4 -4 -3 -3 -3 -3 -3 -3 -3 -3 -2 -2 -2 -2 -2 -2 -2 -1 -1 -1 -1 -1 -0 -0 0 0 1 1 1 2 2 2 3 3 3 3 3 4 4 4 4
-4 -4 -4 -4 -4 -4 -4 -4 -4 -4 -4 -3 -3 -3 -3 -3 -2 -2 -2 -2 -2 -2 -2 -1 -1 -1 -0 -0 -0 0 0 1 1 2 2 2 2 2 3 3 3 3 3
-5 -5 -5 -5 -5 -5 -4 -4 -4 -4 -4 -4 -4 -4 -3 -3 -3 -3 -2 -2 -2 -2 -2 -2 -1 -1 -1 -1 -1 -0 -0 -0 0 1 1 1 2 2 2 2 3 3 3
-5 -5 -5 -5 -5 -5 -5 -5 -5 -5 -5 -4 -4 -4 -4 -4 -4 -3 -3 -3 -3 -3 -3 -2 -2 -2 -1 -1 -1 -1 -1 -1 -0 -0 0 0 1 1 1 2 2 2 2
-6 -6 -6 -6 -6 -6 -6 -6 -6 -5 -5 -5 -5 -5 -4 -4 -4 -4 -4 -3 -3 -3 -3 -3 -3 -2 -2 -2 -2 -2 -2 -1 -1 -1 -0 -0 0 0 1 1 1 1 1
-6 -6 -6 -6 -6 -6 -6 -6 -6 -6 -6 -6 -5 -5 -5 -5 -4 -4 -4 -4 -3 -3 -3 -3 -3 -3 -2 -2 -2 -2 -2 -2 -2 -1 -1 -1 -0 -0 0 1 1 1 1
-7 -7 -7 -6 -6 -6 -6 -6 -6 -6 -6 -6 -6 -6 -5 -5 -5 -5 -4 -4 -4 -3 -3 -3 -3 -3 -3 -2 -2 -2 -2 -2 -2 -2 -2 -2 -1 -1 -0 0 -0 0 0
-8 -7 -7 -7 -7 -7 -7 -7 -7 -7 -7 -6 -6 -6 -6 -5 -5 -5 -5 -4 -4 -4 -3 -3 -3 -3 -3 -3 -3 -2 -2 -2 -2 -2 -2 -2 -1 -1 -1 -0 -0 -0 -0
-8 -8 -8 -8 -7 -7 -7 -8 -8 -7 -7 -7 -7 -6 -6 -6 -5 -5 -5 -5 -4 -4 -4 -4 -3 -3 -3 -3 -3 -3 -3 -3 -3 -3 -2 -2 -2 -2 -1 -1 -1 -1 -1
-8 -8 -8 -8 -8 -8 -8 -8 -8 -8 -8 -7 -7 -7 -6 -6 -6 -5 -5 -5 -4 -4 -4 -4 -4 -4 -4 -4 -3 -3 -3 -3 -3 -3 -3 -2 -2 -2 -2 -2 -1 -1 -1
Wind_Speed
8 9 9 10 10 9 8 8 7 7 7 7 6 6 6 5 5 4 4 6 6 5 4 3 2 1 0 0 1 1 1 1 2 4 4 5 5 6 6 6 6 6 6
9 8 8 9 10 10 8 7 6 5 5 5 5 6 5 5 4 4 4 4 5 5 5 3 2 2 1 1 2 1 1 2 2 3 4 5 6 6 6 6 6 7 6
9 8 7 8 9 10 8 7 7 5 4 4 4 5 5 5 4 4 4 4 4 4 5 4 3 2 2 2 2 1 2 3 3 3 3 4 5 6 7 7 6 7 7
9 8 7 7 9 9 8 5 4 3 3 3 3 3 4 4 4 3 3 3 3 3 4 5 4 3 3 3 3 2 2 3 3 3 4 4 4 5 6 7 7 7 8
9 8 7 8 9 8 7 5 3 2 3 4 3 3 2 2 3 2 2 3 3 3 4 4 5 4 4 4 3 3 3 3 3 4 4 4 5 5 6 7 7 8 8
10 8 7 8 8 6 5 4 3 3 2 3 3 3 3 3 2 1 1 2 3 3 4 4 4 4 4 5 4 4 4 4 4 4 4 5 6 6 7 7 8 8 8
10 9 7 7 7 4 4 5 3 3 3 3 2 3 2 2 1 1 1 1 2 4 5 5 5 4 4 5 5 5 5 5 6 5 6 6 6 7 7 8 9 9 9
10 9 8 6 6 4 5 5 4 2 2 2 2 1 2 2 1 2 1 1 1 3 4 6 5 4 5 4 5 6 6 6 7 6 7 7 7 8 8 9 9 10 9
10 9 8 6 6 4 3 4 3 3 2 2 1 0 1 2 3 2 2 2 1 2 3 5 5 6 6 5 5 6 7 7 7 8 8 8 9 9 9 9 10 10 10
10 9 8 8 6 4 4 4 4 3 2 2 2 2 2 2 2 3 2 2 2 3 3 4 5 6 6 5 6 7 7 7 8 9 9 9 9 9 9 10 10 10 10
9 9 8 7 6 5 5 5 4 3 2 3 3 2 2 2 3 3 4 4 4 3 3 4 4 5 6 6 6 7 7 8 10 10 10 11 10 10 10 10 10 10 9
6 8 8 8 7 6 6 6 5 4 3 4 3 3 3 3 3 3 4 5 6 5 4 3 3 4 6 7 7 8 9 10 10 11 11 11 11 10 10 10 10 9 10
5 7 7 7 7 7 7 7 5 4 4 5 4 4 4 4 4 4 5 5 6 5 3 3 3 5 7 7 7 9 10 11 11 11 12 12 11 11 10 10 10 10 10
6 8 8 7 8 8 8 7 6 5 5 5 6 6 5 5 4 5 5 5 5 5 4 4 3 4 5 7 10 11 9 11 12 12 12 12 11 11 11 10 10 9 10
7 8 8 7 8 8 8 7 5 6 6 6 6 6 6 5 5 5 5 5 5 6 7 4 3 3 6 8 10 10 9 11 12 12 12 11 12 11 10 10 9 9 9
7 8 7 7 8 8 7 6 5 6 6 6 6 7 7 6 5 5 5 5 6 6 8 5 5 4 6 8 11 10 10 12 12 12 12 11 11 10 10 10 10 10 9
7 7 7 7 7 7 7 6 6 6 7 7 7 8 9 8 6 6 6 6 6 6 8 7 5 5 5 6 7 9 10 9 9 12 12 11 11 10 10 11 11 10 9
7 8 7 7 7 8 7 7 8 8 8 8 8 8 9 8 8 7 7 7 7 7 7 9 6 5 6 6 6 6 7 8 8 11 12 12 12 11 11 10 10 9 9
8 8 7 7 7 8 8 8 8 8 9 9 9 9 10 9 10 8 8 8 8 7 6 7 7 5 5 5 5 6 6 5 7 10 11 12 11 10 11 11 10 9 9
7 7 8 8 8 9 9 9 9 9 9 10 10 10 10 9 10 9 9 9 8 7 7 7 6 6 5 4 4 5 5 5 5 6 8 10 10 10 11 11 10 10 9
8 8 8 8 8 8 8 9 10 10 10 9 9 9 10 11 13 11 10 9 8 8 7 7 7 6 5 4 5 5 6 5 5 4 4 5 5 5 7 9 10 10 10
7 8 8 8 9 8 13 16 13 9 9 10 10 10 10 11 13 15 16 14 13 11 9 9 8 8 8 7 5 6 5 5 6 3 3 5 4 5 6 7 10 11 11
8 8 8 8 9 11 16 16 16 10 9 9 10 10 10 10 12 10 13 14 15 16 15 12 11 11 9 8 7 8 8 7 7 4 4 6 4 6 6 9 11 11 11
8 8 9 9 9 11 16 16 16 10 9 9 9 10 10 10 10 12 11 11 12 11 13 11 11 11 10 9 10 10 9 7 6 4 4 6 5 6 5 7 12 12 12
8 8 9 8 9 11 15 16 15 8 8 10 10 10 10 10 14 16 11 10 11 10 12 15 15 14 15 14 11 6 6 6 7 6 4 4 4 4 4 5 9 12 12
8 9 9 8 8 9 14 16 15 7 8 8 8 9 13 13 15 14 9 9 10 9 7 8 9 9 8 9 11 9 8 7 6 5 4 4 3 2 3 3 4 6 7
Wind_Direction
20 17 17 16 12 12 12 10 11 11 9 7 8 9 6 3 3 359 352 358 0 355 348 332 327 300 286 200 170 152 94 149 183 180 177 175 176 173 174 175 174 171 170
22 17 16 14 10 6 5 7 7 5 2 360 356 355 352 350 353 357 354 352 351 354 343 335 321 317 308 288 237 219 222 223 215 192 191 192 192 193 189 187 188 185 180
23 20 16 12 4 1 4 10 11 12 13 4 350 345 345 342 343 348 353 358 352 350 345 330 309 313 310 301 275 255 235 228 232 221 209 205 205 207 205 199 198 199 194
21 22 16 8 3 4 7 9 6 9 5 357 340 328 335 336 334 338 351 360 360 352 344 340 321 311 319 313 297 280 260 250 237 230 225 222 218 214 214 211 206 204 203
20 20 13 6 5 6 5 8 4 6 354 346 327 319 318 315 315 328 345 352 355 347 339 336 339 331 321 309 297 289 286 271 254 247 245 234 225 221 223 219 216 215 214
16 18 14 7 7 6 1 0 0 357 345 334 319 315 301 291 299 318 332 350 356 356 357 349 342 336 332 326 312 297 288 276 265 257 256 249 236 232 234 231 224 219 220
13 14 12 8 6 3 351 348 344 346 349 347 343 330 314 298 292 300 332 338 1 0 2 353 343 337 326 323 317 305 295 284 272 265 258 257 251 246 243 239 231 225 225
10 9 8 5 360 356 353 354 354 345 335 4 353 326 322 323 321 301 283 277 322 356 351 338 328 332 329 322 306 302 296 288 277 271 268 261 257 253 249 245 238 232 229
4 4 359 359 357 357 344 338 345 346 315 307 344 352 301 283 311 277 268 271 299 319 323 322 322 320 314 310 307 305 301 292 285 277 272 270 264 259 251 248 243 236 232
356 358 354 354 350 346 332 323 344 319 296 288 290 298 270 262 273 291 276 263 288 295 292 312 308 305 301 305 303 302 299 292 287 282 277 274 270 264 259 251 246 242 237
350 350 349 348 344 337 327 319 319 306 285 272 279 286 294 292 256 254 277 285 291 269 277 289 291 289 292 294 291 293 294 294 288 282 279 275 272 269 265 260 252 244 237
335 341 342 343 337 329 320 313 303 290 277 275 279 267 257 256 263 263 267 278 283 278 278 269 268 276 285 284 283 295 297 294 289 283 279 276 274 272 270 266 258 246 239
323 324 332 329 326 322 318 312 299 285 270 266 267 269 261 260 265 272 276 281 287 293 274 257 246 270 278 282 287 291 291 291 291 288 280 275 272 271 269 267 261 251 245
308 312 319 319 318 317 316 308 296 283 275 265 269 269 266 266 262 260 264 276 285 287 279 267 266 257 271 288 286 286 286 285 286 288 287 280 274 269 266 263 258 256 252
311 316 314 315 313 312 307 301 288 283 276 264 265 265 266 262 257 258 254 253 255 267 270 269 263 259 274 278 279 279 276 276 280 280 281 281 273 266 261 260 257 256 255
309 312 313 314 311 308 305 298 291 285 279 272 266 264 268 266 257 256 252 251 255 256 263 258 263 277 274 275 276 276 271 273 272 274 275 275 270 263 256 254 254 254 254
307 305 306 306 305 303 301 295 291 289 283 282 275 267 266 266 260 255 251 247 252 255 262 271 270 272 261 263 273 272 271 267 266 266 268 269 270 266 257 250 247 244 241
302 301 302 300 299 299 295 289 290 290 283 280 278 272 268 268 260 257 250 246 248 250 256 268 271 267 265 255 254 258 267 265 264 265 264 264 261 259 254 246 240 237 235
299 302 299 294 294 294 293 288 282 282 278 275 271 268 268 270 267 262 255 250 251 254 254 260 266 268 272 266 264 270 265 263 265 266 264 260 254 253 251 245 239 237 234
296 296 294 290 291 292 293 289 284 280 276 274 271 268 265 259 264 263 262 252 251 252 254 254 260 265 265 260 249 259 270 264 268 269 262 257 252 253 248 241 237 236 233
297 295 296 292 292 290 289 291 288 283 279 275 272 268 268 265 267 265 263 255 250 248 250 252 256 262 258 249 247 254 262 271 267 261 260 258 248 244 246 237 234 232 233
296 294 294 292 293 294 298 300 298 286 280 275 275 274 273 270 269 273 272 267 260 251 249 248 251 250 250 247 248 250 256 265 268 241 245 267 238 248 243 227 231 233 233
294 292 292 288 285 289 299 302 301 292 280 274 272 272 275 275 275 274 273 271 264 259 254 250 249 248 246 239 237 244 244 252 258 246 250 265 258 254 243 234 234 233 232
290 289 291 288 288 292 301 303 303 296 282 275 269 267 268 271 266 272 267 264 261 255 252 248 245 246 245 243 234 238 243 253 268 250 229 255 258 258 253 235 234 230 229
291 289 290 287 287 293 300 303 303 294 285 279 275 272 271 270 274 277 271 267 269 265 263 259 258 256 255 253 249 245 238 239 258 254 226 235 251 264 265 251 233 227 225
290 293 293 289 286 289 297 301 303 293 290 288 283 278 278 279 280 280 269 265 267 269 267 268 268 265 260 252 247 236 230 232 249 253 221 213 238 247 265 258 233 220 219
Height
1539 1539 1539 1539 1539 1539 1539 1539 1540 1540 1540 1540 1541 1541 1541 1542 1542 1542 1543 1543 1543 1544 1544 1544 1544 1545 1546 1546 1547 1547 1548 1548 1549 1550 1550 1551 1552 1553 1554 1554 1555 1556 1557
1537 1537 1537 1537 1537 1537 1537 1537 1537 1537 1538 1538 1539 1539 1539 1540 1540 1540 1540 1541 1541 1541 1542 1542 1543 1543 1543 1544 1544 1545 1546 1546 1547 1548 1548 1549 1550 1551 1552 1553 1553 1554 1554
1536 1535 1535 1535 1535 1535 1535 1535 1535 1535 1535 1535 1536 1536 1537 1537 1537 1538 1538 1538 1538 1539 1539 1540 1540 1541 1541 1542 1542 1542 1543 1544 1544 1545 1546 1546 1547 1549 1550 1550 1551 1551 1552
1534 1533 1533 1533 1533 1532 1532 1532 1532 1532 1532 1532 1533 1533 1534 1534 1534 1535 1535 1535 1535 1536 1536 1537 1537 1538 1538 1539 1539 1540 1540 1541 1542 1542 1543 1544 1545 1546 1547 1548 1548 1549 1550
1532 1532 1531 1530 1530 1530 1530 1529 1529 1529 1529 1529 1529 1530 1530 1530 1531 1531 1532 1532 1532 1533 1533 1533 1534 1535 1535 1536 1536 1537 1537 1538 1539 1539 1540 1541 1542 1543 1544 1545 1545 1546 1547
1530 1529 1529 1528 1528 1527 1527 1527 1526 1526 1526 1526 1526 1526 1526 1527 1527 1528 1528 1529 1529 1529 1530 1530 1530 1531 1532 1532 1533 1534 1534 1535 1536 1536 1537 1537 1538 1539 1540 1541 1542 1543 1544
1527 1527 1526 1525 1525 1524 1524 1524 1523 1523 1523 1523 1522 1522 1522 1523 1523 1524 1525 1525 1525 1526 1526 1526 1527 1527 1528 1529 1529 1530 1531 1531 1532 1533 1533 1534 1534 1535 1536 1537 1538 1539 1540
1525 1524 1523 1523 1522 1521 1521 1521 1520 1519 1519 1520 1519 1518 1518 1519 1519 1520 1520 1521 1521 1522 1522 1522 1523 1523 1524 1524 1525 1526 1527 1527 1528 1529 1529 1530 1530 1531 1532 1533 1534 1535 1536
1522 1521 1520 1520 1519 1518 1518 1518 1517 1516 1516 1517 1518 1518 1517 1515 1514 1514 1515 1516 1517 1517 1518 1518 1518 1519 1519 1520 1521 1521 1522 1523 1524 1525 1525 1526 1526 1527 1528 1529 1530 1531 1532
1519 1518 1517 1516 1516 1515 1515 1514 1514 1514 1513 1513 1514 1515 1516 1514 1513 1510 1510 1511 1512 1512 1513 1513 1514 1514 1515 1515 1516 1517 1517 1518 1519 1520 1520 1521 1522 1523 1523 1524 1525 1526 1527
1515 1514 1514 1513 1512 1512 1511 1511 1510 1510 1510 1510 1510 1510 1511 1511 1510 1508 1505 1505 1506 1507 1508 1508 1509 1510 1510 1510 1511 1512 1512 1513 1513 1514 1515 1516 1517 1518 1518 1519 1520 1521 1522
1512 1511 1510 1509 1508 1508 1507 1507 1506 1506 1506 1506 1506 1506 1506 1506 1505 1505 1502 1500 1499 1500 1502 1503 1504 1505 1505 1506 1506 1506 1507 1507 1508 1509 1510 1510 1511 1512 1513 1514 1514 1515 1517
1508 1507 1506 1505 1504 1503 1503 1502 1502 1501 1501 1501 1501 1501 1501 1501 1501 1501 1500 1497 1495 1494 1495 1497 1498 1499 1500 1500 1500 1501 1501 1502 1502 1503 1504 1505 1505 1506 1507 1508 1509 1510 1511
1504 1503 1501 1500 1500 1499 1498 1497 1497 1496 1496 1496 1496 1496 1496 1496 1496 1496 1496 1495 1492 1489 1489 1490 1491 1493 1494 1494 1495 1495 1495 1496 1496 1497 1497 1498 1499 1500 1501 1502 1503 1504 1505
1501 1499 1497 1496 1495 1494 1493 1492 1491 1490 1490 1490 1490 1490 1490 1490 1490 1491 1491 1491 1490 1486 1483 1483 1485 1486 1487 1488 1489 1489 1489 1490 1490 1491 1491 1492 1493 1494 1495 1496 1497 1498 1499
1497 1495 1493 1491 1490 1489 1488 1487 1486 1485 1484 1484 1484 1484 1483 1484 1484 1484 1484 1484 1485 1483 1479 1477 1479 1480 1481 1482 1483 1483 1483 1483 1484 1484 1485 1485 1486 1487 1488 1489 1490 1491 1493
1492 1490 1488 1486 1485 1484 1483 1481 1480 1479 1478 1477 1477 1477 1477 1477 1477 1477 1477 1478 1478 1477 1474 1472 1474 1474 1475 1475 1476 1476 1476 1476 1476 1477 1478 1479 1480 1481 1481 1482 1484 1485 1486
1487 1485 1483 1482 1480 1479 1477 1476 1474 1473 1472 1470 1470 1470 1470 1470 1470 1470 1470 1470 1470 1470 1470 1467 1467 1468 1468 1469 1469 1470 1470 1470 1470 1471 1471 1472 1473 1474 1475 1476 1477 1478 1480
1483 1481 1479 1477 1475 1473 1471 1469 1468 1466 1465 1464 1464 1463 1463 1462 1462 1463 1463 1462 1463 1463 1463 1462 1461 1462 1462 1463 1463 1463 1463 1463 1464 1464 1464 1465 1465 1467 1468 1469 1470 1472 1474
1477 1475 1473 1472 1469 1467 1465 1463 1461 1460 1458 1457 1457 1456 1456 1456 1455 1455 1455 1455 1456 1456 1456 1456 1455 1455 1456 1456 1457 1457 1456 1457 1457 1458 1458 1458 1459 1460 1461 1462 1463 1465 1467
1472 1470 1468 1465 1463 1461 1459 1457 1455 1452 1451 1450 1450 1449 1449 1449 1448 1449 1449 1449 1449 1449 1449 1449 1449 1449 1449 1450 1450 1450 1450 1450 1450 1451 1451 1452 1452 1453 1453 1455 1456 1458 1460
1467 1464 1462 1459 1457 1455 1453 1451 1448 1446 1444 1443 1442 1442 1442 1442 1442 1442 1442 1442 1443 1443 1442 1443 1442 1442 1442 1443 1444 1445 1445 1445 1443 1445 1445 1445 1446 1446 1447 1448 1450 1451 1453
1461 1458 1456 1453 1451 1449 1447 1444 1442 1440 1438 1437 1436 1435 1435 1435 1435 1434 1434 1434 1435 1435 1436 1436 1435 1434 1435 1436 1438 1438 1438 1438 1437 1438 1440 1438 1439 1439 1440 1441 1443 1445 1447
1455 1452 1450 1447 1445 1443 1441 1439 1437 1435 1432 1431 1430 1429 1429 1428 1428 1427 1427 1426 1426 1426 1427 1427 1427 1427 1429 1430 1431 1432 1432 1432 1432 1433 1434 1433 1433 1433 1434 1435 1437 1438 1440
1449 1447 1444 1442 1439 1437 1435 1433 1432 1429 1426 1425 1424 1423 1422 1421 1421 1421 1421 1420 1419 1418 1419 1420 1420 1421 1421 1423 1424 1425 1425 1426 1424 1425 1427 1427 1427 1427 1428 1428 1430 1432 1433
1444 1441 1439 1436 1434 1431 1430 1428 1427 1424 1421 1419 1418 1417 1416 1415 1415 1415 1414 1413 1412 1411 1411 1411 1412 1413 1413 1414 1416 1418 1418 1419 1418 1418 1419 1421 1421 1422 1422 1422 1424 1425 1427